This is the latest recevied weather packets stored in our database for station/object WA4OPQ-1. If no packets are shown the sender has not sent any weather packets the latest 10 day(s).
| Time | Temp. | Humidity | Pressure | Rain* | Wind** | Luminosity | Snow |
|---|---|---|---|---|---|---|---|
| 1787460554 | 22.22° C | 93% | 1013 hPa | 0 mm | 0 m/s | 0 W/m² | - |
| 1787459964 | 22.78° C | 93% | 1013.2 hPa | 0 mm | 0 m/s | 0 W/m² | - |
| 1787459479 | 22.78° C | 91% | 1013.3 hPa | 0 mm | 0 m/s | 0 W/m² | - |
| 1787458989 | 22.78° C | 91% | 1013.3 hPa | 0 mm | 0 m/s | 0 W/m² | - |
| 1787458434 | 23.33° C | 91% | 1013.1 hPa | 0 mm | 0 m/s | 0 W/m² | - |
| 1787457919 | 23.33° C | 90% | 1013.2 hPa | 0 mm | 0 m/s | 0 W/m² | - |
| 1787457384 | 22.78° C | 91% | 1013.5 hPa | 0 mm | 0 m/s | 0 W/m² | - |
| 1787456874 | 23.33° C | 92% | 1013.3 hPa | 0 mm | 0 m/s | 0 W/m² | - |
| 1787456344 | 23.33° C | 93% | 1013.2 hPa | 0 mm | 0.45 m/s, 330° | 0 W/m² | - |
| 1787455794 | 23.33° C | 94% | 1013.2 hPa | 0 mm | 0 m/s | 0 W/m² | - |
| 1787455199 | 23.33° C | 95% | 1013.1 hPa | 0 mm | 0 m/s | 0 W/m² | - |
| 1787454649 | 23.33° C | 95% | 1013 hPa | 0 mm | 0 m/s | 0 W/m² | - |
| 1787454094 | 23.89° C | 95% | 1012.9 hPa | 0 mm | 0 m/s | 0 W/m² | - |
| 1787453569 | 23.89° C | 95% | 1013 hPa | 0 mm | 0 m/s | 0 W/m² | - |
| 1787453004 | 23.89° C | 94% | 1012.9 hPa | 0 mm | 0 m/s | 0 W/m² | - |
| 1787452523 | 23.89° C | 94% | 1012.7 hPa | 0 mm | 0 m/s | 0 W/m² | - |
| 1787451929 | 23.89° C | 94% | 1012.3 hPa | 0 mm | 0 m/s | 0 W/m² | - |
| 1787451444 | 23.89° C | 94% | 1012.4 hPa | 0 mm | 0 m/s | 0 W/m² | - |
| 1787450859 | 24.44° C | 93% | 1012.3 hPa | 0 mm | 0 m/s | 0 W/m² | - |
| 1787450374 | 24.44° C | 93% | 1011.8 hPa | 0 mm | 0 m/s | 0 W/m² | - |
| 1787449859 | 24.44° C | 94% | 1011.8 hPa | 0 mm | 0 m/s | 0 W/m² | - |
| 1787449364 | 24.44° C | 94% | 1012.1 hPa | 0 mm | 0 m/s | 0 W/m² | - |
| 1787448819 | 24.44° C | 95% | 1011.9 hPa | 0 mm | 0 m/s | 0 W/m² | - |
| 1787448229 | 25° C | 96% | 1012.1 hPa | 0 mm | 0 m/s | 0 W/m² | - |
| 1787447639 | 25° C | 96% | 1011.9 hPa | 0 mm | 0 m/s | 0 W/m² | - |
* Rain latest hour (hover to see other rain measurements)
** Current wind speed in m/s (hover to see current wind gust speed)